Location: Allaines
(49.9632°N, 2.9458°E)
Time: 13:54:32
(UTC+00:00)

USA 234 - Pass Details

Date: 09 April 2020
Orbit: 1102 x 1106 km, 123.0° (Epoch: 14 May)

Event Time Altitude Azimuth Distance (km) Brightness Sun altitude
Rises 23:17:45 0° 63° (ENE) 3,925 6.4 -31.6°
Reaches altitude 10° 23:20:16 10° 60° (ENE) 2,966 5.7 -31.7°
Maximum altitude 23:26:40 59° 343° (NNW) 1,263 3.7 -31.8°
Drops below altitude 10° 23:33:03 10° 266° (W) 2,962 5.5 -31.9°
Sets 23:35:34 0° 263° (W) 3,920 6.1 -31.9°
